CW9181 Weather Reports


Display with metric or nautical units.
time (UTC)temp
F
wind
direction
speed
MPH
gust
MPH
rain 1hr
in
rain 24hr
in
rain mn
in
humidity
%
barometer
mb
20240523133011 56 127 0.0 0.0 0.00 0.00 0.00 79 1011.0
20240523132037 55 137 0.0 0.0 0.00 0.00 0.00 80 1010.8
20240523131038 55 153 0.0 0.0 0.00 0.00 0.00 80 1011.0
20240523130016 55 159 0.0 0.0 0.00 0.00 0.00 80 1010.9
20240523125023 55 166 0.0 0.0 0.00 0.00 0.00 80 1011.0
20240523124022 55 94 0.0 0.0 0.00 0.00 0.00 80 1011.0
20240523123023 55 94 0.0 0.0 0.00 0.00 0.00 79 1010.9
20240523122009 56 93 0.0 0.0 0.00 0.00 0.00 79 1010.9
20240523121025 56 93 0.0 0.0 0.00 0.00 0.00 78 1011.0
20240523120027 56 93 0.0 0.0 0.00 0.00 0.00 77 1011.1
20240523115009 56 93 0.0 0.0 0.00 0.00 0.00 77 1011.1
20240523114010 56 94 0.0 0.0 0.00 0.00 0.00 77 1011.1
20240523113031 57 94 0.0 0.0 0.00 0.00 0.00 75 1011.1
20240523112028 57 94 0.0 0.0 0.00 0.00 0.00 75 1011.0
20240523111044 57 94 0.0 0.0 0.00 0.00 0.00 75 1011.0
20240523110020 58 94 0.0 0.0 0.00 0.00 0.00 74 1011.0
20240523105023 58 94 0.0 0.0 0.00 0.00 0.00 73 1011.0
20240523104021 58 94 0.0 0.0 0.00 0.00 0.00 73 1011.1
20240523103013 58 94 0.0 0.0 0.00 0.00 0.00 72 1011.1
20240523102047 58 78 0.0 0.0 0.00 0.00 0.00 71 1011.1
20240523101025 59 78 0.0 0.0 0.00 0.00 0.00 70 1011.2
20240523100027 59 78 0.0 0.0 0.00 0.00 0.00 70 1011.2
20240523095035 60 104 0.0 0.0 0.00 0.00 0.00 69 1011.0
20240523094013 60 104 0.0 0.0 0.00 0.00 0.00 69 1011.0
20240523093016 60 123 0.0 0.0 0.00 0.00 0.00 68 1011.0
20240523092010 60 132 0.0 0.0 0.00 0.00 0.00 67 1011.1
20240523091025 61 132 0.0 0.0 0.00 0.00 0.00 66 1011.1
20240523090023 61 127 0.0 0.0 0.00 0.00 0.00 65 1011.0
20240523085025 61 143 0.0 2.0 0.00 0.00 0.00 65 1010.9
20240523084039 62 155 0.0 3.0 0.00 0.00 0.00 65 1011.0
20240523083013 62 168 2.0 4.0 0.00 0.00 0.00 64 1010.8
20240523082016 62 200 0.0 5.0 0.00 0.00 0.00 64 1010.8
20240523081010 63 116 3.0 7.0 0.00 0.00 0.00 64 1010.8
20240523080023 63 135 2.0 4.0 0.00 0.00 0.00 63 1010.9
20240523075015 63 134 1.0 3.0 0.00 0.00 0.00 63 1010.9
20240523074010 64 132 1.0 4.0 0.00 0.00 0.00 63 1010.8
20240523073009 64 172 2.0 6.0 0.00 0.00 0.00 63 1010.7
20240523072030 64 161 2.0 4.0 0.00 0.00 0.00 62 1010.6
20240523071025 65 155 1.0 4.0 0.00 0.00 0.00 62 1010.7
20240523070028 65 149 1.0 5.0 0.00 0.00 0.00 61 1010.7
20240523065013 65 174 3.0 6.0 0.00 0.00 0.00 60 1010.7
20240523064012 66 166 2.0 4.0 0.00 0.00 0.00 60 1010.7
20240523063014 66 174 2.0 6.0 0.00 0.00 0.00 59 1010.7
20240523062047 67 128 3.0 6.0 0.00 0.00 0.00 59 1010.7
20240523061027 67 141 3.0 9.0 0.00 0.00 0.00 58 1010.7
20240523060027 68 156 3.0 7.0 0.00 0.00 0.00 57 1010.7
20240523055023 68 158 2.0 9.0 0.00 0.00 0.00 56 1010.6
20240523054020 69 162 6.0 12.0 0.00 0.00 0.00 55 1010.6
20240523053014 69 168 4.0 8.0 0.00 0.00 0.00 55 1010.7
20240523052010 70 162 3.0 8.0 0.00 0.00 0.00 54 1010.5
20240523051042 70 168 2.0 5.0 0.00 0.00 0.00 53 1010.3
20240523050034 71 227 3.0 8.0 0.00 0.00 0.00 52 1010.2
20240523045026 72 161 2.0 4.0 0.00 0.00 0.00 51 1010.2
20240523044026 72 151 2.0 7.0 0.00 0.00 0.00 50 1009.9
20240523043024 73 151 3.0 6.0 0.00 0.00 0.00 49 1009.9
20240523042024 73 199 2.0 5.0 0.00 0.00 0.00 48 1009.9
20240523041015 74 197 2.0 6.0 0.00 0.00 0.00 47 1009.7
20240523040051 74 197 2.0 7.0 0.00 0.00 0.00 46 1009.8
20240523035024 75 175 2.0 6.0 0.00 0.00 0.00 45 1009.6
20240523034025 76 170 3.0 6.0 0.00 0.00 0.00 45 1009.7
20240523033025 77 161 2.0 5.0 0.00 0.00 0.00 43 1009.8
20240523032028 78 256 2.0 9.0 0.00 0.00 0.00 42 1009.7
20240523031009 79 235 2.0 9.0 0.00 0.00 0.00 41 1009.8
20240523030026 79 255 4.0 12.0 0.00 0.00 0.00 40 1009.8
20240523025027 80 247 4.0 9.0 0.00 0.00 0.00 39 1009.7
20240523024032 81 224 2.0 10.0 0.00 0.00 0.00 38 1009.6
20240523023010 82 241 3.0 8.0 0.00 0.00 0.00 37 1009.6
20240523022011 83 204 4.0 12.0 0.00 0.00 0.00 35 1009.6
20240523021015 84 282 4.0 14.0 0.00 0.00 0.00 35 1009.3
20240523020019 85 176 5.0 11.0 0.00 0.00 0.00 29 1009.4
20240523015022 86 165 2.0 6.0 0.00 0.00 0.00 25 1009.2
20240523014022 86 234 3.0 8.0 0.00 0.00 0.00 24 1009.2
20240523013022 87 170 3.0 8.0 0.00 0.00 0.00 25 1009.2
20240523012030 86 241 4.0 9.0 0.00 0.00 0.00 25 1009.3
20240523011028 87 278 2.0 8.0 0.00 0.00 0.00 26 1009.3
20240523010011 87 260 3.0 6.0 0.00 0.00 0.00 26 1009.3
20240523005011 88 226 3.0 9.0 0.00 0.00 0.00 27 1009.4
20240523004014 87 242 5.0 8.0 0.00 0.00 0.00 27 1009.6
20240523003019 88 209 3.0 5.0 0.00 0.00 0.00 24 1009.7
20240523002017 87 170 4.0 5.0 0.00 0.00 0.00 26 1009.6
20240523001043 87 254 5.0 8.0 0.00 0.00 0.00 27 1009.7
20240523000013 87 260 3.0 10.0 0.00 0.00 0.00 28 1009.7
20240522235013 87 265 3.0 8.0 0.00 0.00 0.00 27 1009.9
20240522234014 87 265 2.0 5.0 0.00 0.00 0.00 27 1010.0
20240522233043 86 170 2.0 4.0 0.00 0.00 0.00 27 1010.2
20240522232018 86 320 2.0 7.0 0.00 0.00 0.00 27 1010.2
20240522231022 86 316 3.0 8.0 0.00 0.00 0.00 27 1010.4
20240522230044 86 253 4.0 6.0 0.00 0.00 0.00 30 1010.5
20240522225018 85 325 0.0 9.0 0.00 0.00 0.00 29 1010.6
20240522224017 85 225 4.0 6.0 0.00 0.00 0.00 30 1010.7
20240522223014 85 270 3.0 9.0 0.00 0.00 0.00 29 1010.9
20240522222031 84 298 1.0 6.0 0.00 0.00 0.00 33 1010.9
20240522221011 84 355 3.0 7.0 0.00 0.00 0.00 32 1011.1
20240522220014 84 124 3.0 5.0 0.00 0.00 0.00 31 1011.3
20240522215016 83 307 1.0 5.0 0.00 0.00 0.00 33 1011.3
20240522214009 83 256 3.0 9.0 0.00 0.00 0.00 34 1011.5
20240522213024 83 223 5.0 9.0 0.00 0.00 0.00 34 1011.6
20240522212021 82 227 2.0 4.0 0.00 0.00 0.00 38 1011.8
20240522211023 81 297 2.0 7.0 0.00 0.00 0.00 37 1012.0
20240522210022 80 342 1.0 4.0 0.00 0.00 0.00 37 1011.9
20240522205024 81 312 2.0 5.0 0.00 0.00 0.00 40 1012.0
20240522204009 81 252 4.0 6.0 0.00 0.00 0.00 38 1012.3
20240522203014 80 47 4.0 7.0 0.00 0.00 0.00 38 1012.3
20240522202010 81 6 3.0 6.0 0.00 0.00 0.00 37 1012.4
20240522201008 81 134 5.0 8.0 0.00 0.00 0.00 38 1012.6
20240522200009 78 148 1.0 6.0 0.00 0.00 0.00 40 1012.5
20240522195011 79 255 4.0 8.0 0.00 0.00 0.00 40 1012.5
20240522194034 78 83 1.0 8.0 0.00 0.00 0.00 41 1012.8
20240522193017 79 204 3.0 8.0 0.00 0.00 0.00 42 1012.9
20240522192022 76 10 1.0 7.0 0.00 0.00 0.00 41 1013.0
20240522191027 77 196 3.0 10.0 0.00 0.00 0.00 43 1013.1
20240522190010 77 182 3.0 10.0 0.00 0.00 0.00 42 1013.0
20240522185031 77 161 3.0 7.0 0.00 0.00 0.00 42 1013.1
20240522184008 76 95 1.0 5.0 0.00 0.00 0.00 44 1013.1
20240522183011 75 265 5.0 10.0 0.00 0.00 0.00 43 1013.1
20240522182017 75 129 4.0 8.0 0.00 0.00 0.00 43 1013.0
20240522181017 75 282 3.0 11.0 0.00 0.00 0.00 44 1012.9
20240522180025 75 191 3.0 10.0 0.00 0.00 0.00 43 1012.8
20240522175025 74 175 2.0 7.0 0.00 0.00 0.00 45 1012.8
20240522174046 73 193 3.0 9.0 0.00 0.00 0.00 45 1012.9
20240522173025 73 137 4.0 10.0 0.00 0.00 0.00 46 1013.0
20240522172011 73 110 3.0 10.0 0.00 0.00 0.00 45 1013.1
20240522171046 72 103 2.0 9.0 0.00 0.00 0.00 44 1013.1
20240522170022 72 103 3.0 9.0 0.00 0.00 0.00 45 1013.1
20240522165021 71 77 3.0 6.0 0.00 0.00 0.00 47 1013.2
20240522164023 70 154 1.0 9.0 0.00 0.00 0.00 48 1013.4
20240522163028 70 139 4.0 7.0 0.00 0.00 0.00 48 1013.4
20240522162009 69 150 2.0 7.0 0.00 0.00 0.00 47 1013.4
20240522161028 69 132 3.0 7.0 0.00 0.00 0.00 48 1013.4
20240522160021 68 134 3.0 7.0 0.00 0.00 0.00 49 1013.3
20240522155022 68 186 3.0 8.0 0.00 0.00 0.00 48 1013.2
20240522154024 68 158 5.0 8.0 0.00 0.00 0.00 48 1013.1
20240522153023 67 92 4.0 9.0 0.00 0.00 0.00 50 1013.0
20240522152022 66 100 4.0 7.0 0.00 0.00 0.00 51 1013.1
20240522151015 66 129 3.0 5.0 0.00 0.00 0.00 52 1013.1
20240522150019 65 145 2.0 4.0 0.00 0.00 0.00 56 1013.0
20240522145019 64 184 2.0 6.0 0.00 0.00 0.00 57 1013.0
20240522144025 63 188 0.0 4.0 0.00 0.00 0.00 58 1013.0
20240522143011 62 195 1.0 3.0 0.00 0.00 0.00 60 1012.8
20240522142048 61 177 1.0 3.0 0.00 0.00 0.00 61 1012.6
20240522141024 60 130 2.0 4.0 0.00 0.00 0.00 61 1012.4
20240522140010 59 157 1.0 5.0 0.00 0.00 0.00 61 1012.3
20240522135010 58 161 3.0 6.0 0.00 0.00 0.00 63 1012.2
20240522134032 56 155 0.0 3.0 0.00 0.00 0.00 68 1012.2